Tracking 19832 objects as of 25-Aug-2019
HD Live streaming from Space Station
objects crossing your sky now

COSMOS 660

Track COSMOS 660 now!
10-day predictions
COSMOS 660 is classified as:


NORAD ID: 7337
Int'l Code: 1974-044A
Perigee: 382.2 km
Apogee: 1,157.6 km
Inclination: 82.9 °
Period: 100.1 minutes
Semi major axis: 7140 km
RCS: 2.9855 m2 (large)
Launch date: June 18, 1974
Source: Commonwealth of Independent States (former USSR) (CIS)
Launch site: PLESETSK MISSILE AND SPACE COMPLEX (PKMTR)
aabbcc
Your satellite tracking list
Your tracking list is empty




NASA's NSSDC Master Catalog

Two Line Element Set (TLE):
1  7337U 74044A   19236.89500897  .00000744  00000-0  37535-4 0  9998
2  7337  82.9477 199.8715 0542946 320.7304  35.5647 14.38709683281468
Source of the keplerian elements: AFSPC